Change the Weather History Date:

Thursday, January 24, 2013

  Actual Average Record
Temperature  
Mean Temperature 0 °F -  
Max Temperature 10 °F 25 °F 52 °F (1942)
Min Temperature -11 °F 3 °F -36 °F (1922)
Degree Days  
Heating Degree Days 66    
Moisture  
Dew Point -8 °F    
Average Humidity 67    
Maximum Humidity 79    
Minimum Humidity 48    
Precipitation  
Precipitation 0.00 in - - ()
Sea Level Pressure  
Sea Level Pressure 30.47 in    
Wind  
Wind Speed 2 mph (South)    
Max Wind Speed 9 mph    
Max Gust Speed -    
Visibility 10 miles    
Events Snow    
Averages and records for this station are not official NWS values.
T = Trace of Precipitation, MM = Missing Value Source: NWS Daily Summary

Daily Weather History Graph

Daily Weather History Graph

Search for Another Location

Airport or City:

Trip Planner

Search our weather history database for the weather conditions in past years. The results will help you decide how hot, cold, wet, or windy it might be!

Date:

Astronomy

Jan. 24, 2013 Rise Set
Actual Time 7:27 AM CST 4:55 PM CST
Civil Twilight 6:55 AM CST 5:27 PM CST
Nautical Twilight 6:19 AM CST 6:03 PM CST
Astronomical Twilight 5:44 AM CST 6:38 PM CST
Moon 2:55 PM CST (1/24) 5:26 AM CST (1/24)
Length of Visible Light 10h 32m
Length of Day
9h 28m
Waxing Gibbous, 94% of the Moon is Illuminated
Jan 24
Waxing Gibbous
Jan 26
Full
Feb 3
Last Quarter
Feb 10
New
Feb 17
First Quarter

Hourly Weather History & Observations

Time (CST) Temp. Windchill Dew Point Humidity Pressure Visibility Wind Dir Wind Speed Gust Speed Precip Events Conditions
12:15 AM -4.0 °F - -9.4 °F 78% 30.43 in 10.0 mi Calm Calm - N/A   Clear
12:35 AM -5.8 °F - -11.2 °F 77% 30.45 in 10.0 mi Calm Calm - N/A   Clear
12:55 AM -5.8 °F - -11.2 °F 77% 30.46 in 10.0 mi Calm Calm - N/A   Clear
1:15 AM -5.8 °F - -11.2 °F 77% 30.47 in 10.0 mi Calm Calm - N/A   Clear
1:35 AM -5.8 °F -14.5 °F -13.0 °F 71% 30.47 in 10.0 mi NNW 3.5 mph - N/A   Clear
1:55 AM -5.8 °F -18.4 °F -11.2 °F 77% 30.48 in 10.0 mi NW 5.8 mph - N/A   Scattered Clouds
2:15 AM -5.8 °F -19.9 °F -13.0 °F 71% 30.49 in 10.0 mi NNW 6.9 mph - N/A   Clear
2:35 AM -7.6 °F -18.8 °F -13.0 °F 77% 30.50 in 10.0 mi NNW 4.6 mph - N/A   Clear
2:55 AM -7.6 °F -16.5 °F -13.0 °F 77% 30.51 in 10.0 mi North 3.5 mph - N/A   Clear
3:15 AM -7.6 °F -18.8 °F -13.0 °F 77% 30.51 in 10.0 mi NNW 4.6 mph - N/A   Clear
3:35 AM -7.6 °F -18.8 °F -13.0 °F 77% 30.51 in 10.0 mi North 4.6 mph - N/A   Clear
3:55 AM -7.6 °F -20.6 °F -13.0 °F 77% 30.52 in 10.0 mi NNW 5.8 mph - N/A   Clear
4:15 AM -7.6 °F -20.6 °F -13.0 °F 77% 30.53 in 10.0 mi NNW 5.8 mph - N/A   Clear
4:35 AM -7.6 °F - -14.8 °F 71% 30.53 in 10.0 mi Calm Calm - N/A   Clear
4:55 AM -9.4 °F - -14.8 °F 77% 30.55 in 10.0 mi Calm Calm - N/A   Clear
5:15 AM -7.6 °F - -14.8 °F 71% 30.55 in 10.0 mi Calm Calm - N/A   Clear
5:35 AM -9.4 °F - -14.8 °F 77% 30.55 in 10.0 mi Calm Calm - N/A   Clear
6:15 AM -11.2 °F - -16.6 °F 77% 30.56 in 10.0 mi Calm Calm - N/A   Clear
6:35 AM -11.2 °F - -16.6 °F 77% 30.56 in 10.0 mi Calm Calm - N/A   Clear
6:55 AM -11.2 °F - -16.6 °F 77% 30.57 in 10.0 mi Calm Calm - N/A   Clear
7:15 AM -9.4 °F - -14.8 °F 77% 30.58 in 10.0 mi Calm Calm - N/A   Clear
7:55 AM -9.4 °F - -14.8 °F 77% 30.58 in 10.0 mi Calm Calm - N/A   Clear
8:15 AM -9.4 °F - -14.8 °F 77% 30.59 in 10.0 mi Calm Calm - N/A   Clear
8:35 AM -7.6 °F - -13.0 °F 77% 30.60 in 10.0 mi Calm Calm - N/A   Clear
8:55 AM -5.8 °F - -11.2 °F 77% 30.59 in 10.0 mi Calm Calm - N/A   Clear
9:15 AM -4.0 °F -14.6 °F -9.4 °F 78% 30.58 in 10.0 mi NE 4.6 mph - N/A   Clear
9:35 AM -4.0 °F - -9.4 °F 78% 30.58 in 10.0 mi Calm Calm - N/A   Clear
9:55 AM -2.2 °F - -7.6 °F 78% 30.57 in 10.0 mi Calm Calm - N/A   Clear
10:15 AM -0.4 °F - -7.6 °F 72% 30.58 in 10.0 mi Calm Calm - N/A   Clear
10:35 AM 1.4 °F - -5.8 °F 72% 30.57 in 10.0 mi Calm Calm - N/A   Clear
10:55 AM 1.4 °F - -7.6 °F 66% 30.57 in 10.0 mi Calm Calm - N/A   Clear
11:15 AM 3.2 °F - -5.8 °F 66% 30.57 in 10.0 mi Calm Calm - N/A   Clear
11:35 AM 3.2 °F - -5.8 °F 66% 30.56 in 10.0 mi Calm Calm - N/A   Clear
11:55 AM 5.0 °F - -7.6 °F 56% 30.55 in 10.0 mi Calm Calm - N/A   Clear
12:15 PM 5.0 °F - -7.6 °F 56% 30.53 in 10.0 mi Calm Calm - N/A   Clear
12:35 PM 5.0 °F - -7.6 °F 56% 30.52 in 10.0 mi Calm Calm - N/A   Clear
12:55 PM 5.0 °F - -7.6 °F 56% 30.52 in 10.0 mi Calm Calm - N/A   Clear
1:15 PM 8.6 °F 2.0 °F -7.6 °F 48% 30.51 in 10.0 mi SW 3.5 mph - N/A   Clear
1:35 PM 8.6 °F - -7.6 °F 48% 30.50 in 10.0 mi Calm Calm - N/A   Clear
1:55 PM 8.6 °F 0.1 °F -5.8 °F 52% 30.49 in 10.0 mi WSW 4.6 mph - N/A   Clear
2:15 PM 8.6 °F 0.1 °F -5.8 °F 52% 30.49 in 10.0 mi South 4.6 mph - N/A   Clear
2:35 PM 8.6 °F - -7.6 °F 48% 30.48 in 10.0 mi Calm Calm - N/A   Clear
2:55 PM 8.6 °F - -5.8 °F 52% 30.49 in 10.0 mi Calm Calm - N/A   Clear
3:15 PM 10.4 °F 2.2 °F -5.8 °F 48% 30.48 in 10.0 mi SW 4.6 mph - N/A   Clear
3:35 PM 8.6 °F -2.6 °F -7.6 °F 48% 30.47 in 10.0 mi SSW 6.9 mph - N/A   Scattered Clouds
3:55 PM 8.6 °F - -7.6 °F 48% 30.47 in 10.0 mi Calm Calm - N/A   Mostly Cloudy
4:15 PM 8.6 °F - -5.8 °F 52% 30.46 in 10.0 mi Calm Calm - N/A   Mostly Cloudy
4:55 PM 8.6 °F - -5.8 °F 52% 30.42 in 10.0 mi Calm Calm - N/A   Mostly Cloudy
5:15 PM 8.6 °F - -5.8 °F 52% 30.42 in 10.0 mi Calm Calm - N/A   Scattered Clouds
5:35 PM 8.6 °F - -5.8 °F 52% 30.40 in 10.0 mi Calm Calm - N/A   Clear
5:55 PM 8.6 °F - -5.8 °F 52% 30.39 in 10.0 mi Calm Calm - N/A   Scattered Clouds
6:15 PM 8.6 °F - -4.0 °F 57% 30.39 in 10.0 mi Calm Calm - N/A   Mostly Cloudy
6:35 PM 8.6 °F 2.0 °F -4.0 °F 57% 30.38 in 10.0 mi South 3.5 mph - N/A   Overcast
6:55 PM 8.6 °F - -4.0 °F 57% 30.37 in 10.0 mi Calm Calm - N/A   Overcast
7:15 PM 8.6 °F 2.0 °F -4.0 °F 57% 30.38 in 10.0 mi South 3.5 mph - N/A   Overcast
7:35 PM 8.6 °F 2.0 °F -4.0 °F 57% 30.38 in 10.0 mi South 3.5 mph - N/A   Overcast
7:55 PM 8.6 °F -1.3 °F -4.0 °F 57% 30.36 in 10.0 mi SSE 5.8 mph - N/A   Overcast
8:15 PM 8.6 °F 2.0 °F -4.0 °F 57% 30.35 in 10.0 mi South 3.5 mph - N/A   Overcast
8:35 PM 8.6 °F -1.3 °F -4.0 °F 57% 30.33 in 10.0 mi SSE 5.8 mph - N/A   Overcast
8:55 PM 8.6 °F - -4.0 °F 57% 30.33 in 10.0 mi Calm Calm - N/A   Overcast
9:15 PM 8.6 °F -2.6 °F -2.2 °F 62% 30.32 in 4.0 mi SSE 6.9 mph - N/A Snow Light Snow
9:35 PM 8.6 °F 0.1 °F 3.2 °F 79% 30.32 in 1.5 mi SSE 4.6 mph - N/A Snow Light Snow
9:55 PM 8.6 °F 0.1 °F 3.2 °F 79% 30.30 in 1.8 mi SSE 4.6 mph - N/A Snow Light Snow
10:15 PM 8.6 °F -1.3 °F 3.2 °F 79% 30.30 in 2.0 mi SE 5.8 mph - N/A Snow Light Snow
10:35 PM 8.6 °F -4.7 °F 3.2 °F 79% 30.29 in 7.0 mi SE 9.2 mph - N/A Snow Light Snow
10:55 PM 8.6 °F -3.7 °F 3.2 °F 79% 30.29 in 10.0 mi SSE 8.1 mph - N/A   Overcast
11:15 PM 8.6 °F 2.0 °F 3.2 °F 79% 30.28 in 10.0 mi SSE 3.5 mph - N/A   Overcast
11:35 PM 8.6 °F -2.6 °F 3.2 °F 79% 30.29 in 10.0 mi SSE 6.9 mph - N/A   Overcast
11:55 PM 8.6 °F 0.1 °F 3.2 °F 79% 30.27 in 10.0 mi SSE 4.6 mph - N/A   Overcast